User: anonymous   Login
Location: Muenchen
(48.1800°N, 11.5800°E)
Time: 18:05:34
(UTC+01:00)
Language:

Cosmos 2233 Rocket - Orbit

View from above orbital plane
View from above orbital plane
View from above satellite
View from above satellite

Ground track
Ground track

The orbit data is extracted from the following two-line orbital elements,

1 22488U 93008B   18051.94787156 -.00000066 +00000-0 -81108-4 0  9992
2 22488 082.9394 253.3007 0024291 247.0858 221.0365 13.77727613258225
Epoch (UTC): 20 February 2018 22:44:56
Eccentricity: 0.0024291
inclination: 82.9394°
perigee height: 954 km
apogee height: 990 km
right ascension of ascending node: 253.3007°
argument of perigee: 247.0858°
revolutions per day: 13.77727613
mean anomaly at epoch: 221.0365°
orbit number at epoch: 25822

The dashed part of the orbit path shows where the satellite is in the earth's shadow,  

DLR